Lid_Strength_Index
2 1 1 1 3 4 5 8 13 6 4 9 9 13 13 12 12 10 11 11 12 13 13 15 17 17 16 16 17 19 19 20 22 21 19 19 19 20 20 23 25 23 23 24
1 1 1 1 3 4 6 10 11 5 6 13 13 12 12 11 11 11 12 12 12 12 15 17 16 16 18 17 18 20 19 21 23 24 22 20 21 20 20 20 21 24 25 21
2 1 1 2 3 4 5 10 13 9 8 8 11 11 12 12 10 11 11 12 13 16 17 17 18 18 19 18 19 18 18 21 21 23 21 21 23 21 20 21 23 23 22 20
1 2 1 2 3 3 5 9 12 11 12 12 11 11 11 12 13 12 12 16 15 17 19 19 19 18 19 18 18 18 19 23 21 21 20 20 21 21 20 21 20 23 21 20
1 2 2 2 3 3 6 7 11 11 11 9 12 12 13 13 12 14 15 17 17 17 17 17 19 18 19 20 19 20 19 22 22 24 21 21 22 21 20 20 19 20 19 19
2 2 2 2 3 4 8 8 9 10 8 11 12 11 12 11 11 13 12 15 17 18 16 15 16 16 16 18 20 20 21 22 24 23 23 23 25 22 20 20 19 19 21 17
3 2 2 3 4 4 4 8 9 12 11 10 11 11 10 12 12 13 15 15 16 17 16 17 17 18 18 18 18 18 21 22 22 25 25 28 21 19 19 20 19 17 17 16
2 3 3 3 4 5 4 6 9 10 11 9 9 12 13 13 14 15 17 16 15 16 17 20 22 22 22 21 19 19 18 20 23 25 26 23 21 20 20 21 21 16 16 14
3 3 3 3 4 5 4 4 7 9 11 11 11 15 14 16 17 19 19 17 16 16 19 20 25 25 23 24 23 19 19 19 22 26 27 27 21 19 17 18 23 15 15 15
3 3 4 3 4 5 6 8 8 12 13 13 13 16 16 15 17 20 19 19 19 17 20 23 24 23 21 25 25 24 22 22 24 24 25 23 17 17 16 24 20 14 14 14
3 3 4 4 4 5 5 8 10 11 15 17 16 16 17 17 17 20 19 19 20 20 21 22 22 22 22 22 21 22 23 24 24 23 25 26 16 17 20 16 14 13 13 14
3 3 3 4 4 5 5 14 11 11 15 17 16 16 13 13 14 17 17 17 19 18 20 20 19 22 21 20 24 18 23 20 22 21 21 16 15 15 13 13 13 13 15 15
2 2 2 2 3 4 7 13 13 14 16 17 16 17 14 12 13 12 17 17 16 17 15 18 19 21 19 23 21 20 18 17 19 20 17 16 15 13 12 13 13 14 16 17
1 1 1 2 3 7 9 14 12 13 15 18 17 12 14 12 12 12 13 14 14 14 15 17 19 20 17 19 18 19 17 17 17 18 16 15 13 12 11 13 14 16 17 18
1 1 2 4 6 7 10 11 11 12 13 17 17 15 13 12 12 13 13 13 14 15 17 18 19 17 17 17 18 19 16 16 18 18 15 14 13 12 13 13 15 16 19 20
1 3 4 6 7 9 11 15 12 10 11 15 19 15 15 13 12 13 13 13 14 15 16 17 16 14 16 20 20 16 13 13 13 15 12 12 13 13 14 15 17 18 20 21
5 6 6 7 8 10 12 13 11 8 9 15 18 18 15 13 13 13 13 13 14 14 15 16 16 16 15 18 21 13 13 13 12 12 13 14 14 14 15 16 18 20 21 20
5 6 7 7 8 9 12 9 7 9 12 13 19 21 17 13 16 17 13 15 14 14 15 15 17 16 15 19 14 13 12 13 13 13 12 13 15 16 18 18 20 22 21 21
4 4 6 8 10 14 12 8 8 9 12 17 19 21 22 14 16 16 15 14 17 14 16 17 16 18 19 15 14 13 12 13 13 14 15 16 16 17 18 19 21 21 21 23
4 6 12 13 13 7 7 10 13 13 13 15 19 17 19 15 16 17 17 16 18 20 17 15 17 18 15 11 12 12 12 12 14 18 19 20 19 17 18 20 20 20 22 23
7 12 12 10 6 10 12 15 15 15 17 16 18 18 18 15 18 18 15 18 17 20 19 18 20 23 14 10 11 11 12 12 13 11 11 13 14 16 17 20 21 22 24 26
9 10 9 9 11 12 14 15 14 15 18 18 19 17 16 15 13 16 16 17 17 20 21 20 23 20 13 11 11 10 11 12 13 14 15 16 16 16 18 21 24 26 28 30
8 10 11 13 13 16 16 18 17 18 18 17 16 17 16 14 12 15 15 18 19 21 21 22 21 14 12 11 12 15 16 16 20 21 21 22 24 25 26 28 29 29 30 31
10 12 15 14 15 14 15 16 18 17 16 15 13 16 14 13 14 14 17 17 19 22 25 24 17 13 12 12 14 18 19 20 21 23 24 25 26 28 28 28 30 30 31 32
11 11 15 14 12 16 17 16 15 15 11 11 14 14 13 14 14 14 18 21 20 20 21 17 12 10 13 12 16 18 21 22 23 25 25 26 28 28 30 31 30 30 31 31
10 11 14 13 15 18 16 15 15 11 10 11 12 14 15 15 14 17 18 19 20 18 17 13 13 13 13 13 18 20 21 22 25 24 25 27 28 29 29 31 31 31 30 30
11 13 11 11 12 13 15 13 13 9 11 13 13 16 16 13 16 17 16 19 15 13 15 15 15 15 17 22 24 25 25 25 26 27 27 27 28 30 30 31 31 30 29 29